Stündliche Wetter Abinsk

Heute, 23 Juni, Mittwoch

Zeit Temperatur Niederschläge Wind Luftdruck Luftfeuchtigkeit
00:00 +21°C° 0 mm 1 m/S 756 mmHg 91%
01:00 +21°C° 0 mm 1 m/S 756 mmHg 92%
02:00 +21°C° 0 mm 1 m/S 756 mmHg 93%
03:00 +21°C° 0 mm 1 m/S 756 mmHg 94%
04:00 +21°C° 0 mm 1 m/S 757 mmHg 93%
05:00 +22°C° 0 mm 1 m/S 757 mmHg 91%
06:00 +22°C° 0 mm 1 m/S 757 mmHg 90%
07:00 +24°C° 0 mm 1 m/S 757 mmHg 83%
08:00 +26°C° 0 mm 1 m/S 757 mmHg 75%
09:00 +27°C° 0 mm 1 m/S 757 mmHg 67%
10:00 +29°C° 0 mm 1 m/S 757 mmHg 64%
11:00 +30°C° 0 mm 1 m/S 757 mmHg 60%
12:00 +31°C° 0 mm 1 m/S 757 mmHg 56%
13:00 +32°C° 0 mm 2 m/S 756 mmHg 55%
14:00 +32°C° 0 mm 2 m/S 756 mmHg 53%
15:00 +32°C° 0 mm 2 m/S 756 mmHg 52%
16:00 +33°C° 0 mm 3 m/S 756 mmHg 56%
17:00 +31°C° 0 mm 3 m/S 756 mmHg 60%
18:00 +30°C° 0 mm 3 m/S 756 mmHg 64%
19:00 +28°C° 0 mm 3 m/S 756 mmHg 73%
20:00 +26°C° 0 mm 2 m/S 756 mmHg 81%
21:00 +24°C° 0 mm 2 m/S 757 mmHg 89%
22:00 +23°C° 0 mm 2 m/S 757 mmHg 90%
23:00 +23°C° 0 mm 2 m/S 757 mmHg 90%

Morgen, 24 Juni, Donnerstag

Zeit Temperatur Niederschläge Wind Luftdruck Luftfeuchtigkeit
00:00 +23°C° 0 mm 2 m/S 757 mmHg 91%
01:00 +23°C° 0 mm 2 m/S 757 mmHg 91%
02:00 +23°C° 0 mm 2 m/S 756 mmHg 91%
03:00 +22°C° 0 mm 3 m/S 756 mmHg 91%
04:00 +23°C° 0.1 mm 2 m/S 756 mmHg 91%
05:00 +23°C° 0.1 mm 2 m/S 757 mmHg 91%
06:00 +23°C° 0.1 mm 2 m/S 757 mmHg 91%
07:00 +24°C° 0 mm 2 m/S 757 mmHg 84%
08:00 +26°C° 0 mm 2 m/S 757 mmHg 76%
09:00 +27°C° 0 mm 2 m/S 757 mmHg 69%
10:00 +29°C° 0 mm 2 m/S 757 mmHg 64%
11:00 +30°C° 0 mm 1 m/S 757 mmHg 59%
12:00 +31°C° 0 mm 1 m/S 757 mmHg 54%
13:00 +31°C° 0 mm 1 m/S 757 mmHg 56%
14:00 +31°C° 0 mm 2 m/S 757 mmHg 57%
15:00 +31°C° 0 mm 2 m/S 756 mmHg 58%
16:00 +30°C° 0 mm 2 m/S 756 mmHg 62%
17:00 +29°C° 0 mm 2 m/S 757 mmHg 66%
18:00 +28°C° 0 mm 3 m/S 757 mmHg 69%
19:00 +27°C° 0 mm 2 m/S 757 mmHg 75%
20:00 +25°C° 0 mm 2 m/S 757 mmHg 82%
21:00 +24°C° 0 mm 2 m/S 757 mmHg 88%
22:00 +23°C° 0 mm 2 m/S 757 mmHg 89%
23:00 +23°C° 0 mm 2 m/S 757 mmHg 91%

übermorgen, 25 Juni, Freitag

Zeit Temperatur Niederschläge Wind Luftdruck Luftfeuchtigkeit
00:00 +22°C° 0 mm 1 m/S 757 mmHg 92%
01:00 +21°C° 0 mm 2 m/S 756 mmHg 93%
02:00 +21°C° 0 mm 2 m/S 756 mmHg 93%
03:00 +21°C° 0 mm 2 m/S 756 mmHg 94%
04:00 +21°C° 0 mm 2 m/S 756 mmHg 93%
05:00 +21°C° 0 mm 2 m/S 756 mmHg 91%
06:00 +23°C° 0 mm 2 m/S 756 mmHg 90%
07:00 +24°C° 0 mm 2 m/S 756 mmHg 83%
08:00 +26°C° 0 mm 2 m/S 756 mmHg 76%
09:00 +27°C° 0 mm 2 m/S 757 mmHg 69%
10:00 +29°C° 0 mm 2 m/S 756 mmHg 65%
11:00 +30°C° 0 mm 1 m/S 756 mmHg 61%
12:00 +31°C° 0 mm 1 m/S 756 mmHg 57%
13:00 +31°C° 0.1 mm 1 m/S 756 mmHg 57%
14:00 +31°C° 0.1 mm 2 m/S 756 mmHg 57%
15:00 +31°C° 0.1 mm 2 m/S 755 mmHg 58%
16:00 +30°C° 0.2 mm 2 m/S 755 mmHg 63%
17:00 +28°C° 0.2 mm 2 m/S 756 mmHg 69%
18:00 +27°C° 0.2 mm 3 m/S 756 mmHg 75%
19:00 +26°C° 0.5 mm 2 m/S 756 mmHg 80%
20:00 +24°C° 0.5 mm 2 m/S 756 mmHg 84%
21:00 +23°C° 0.5 mm 2 m/S 756 mmHg 89%
22:00 +23°C° 0 mm 1 m/S 756 mmHg 90%
23:00 +22°C° 0 mm 1 m/S 755 mmHg 90%

26 Juni, Samstag

Zeit Temperatur Niederschläge Wind Luftdruck Luftfeuchtigkeit
00:00 +22°C° 0 mm 1 m/S 755 mmHg 91%
01:00 +22°C° 0.1 mm 1 m/S 755 mmHg 91%
02:00 +22°C° 0.1 mm 1 m/S 755 mmHg 92%
03:00 +21°C° 0.1 mm 2 m/S 755 mmHg 92%
04:00 +22°C° 0.6 mm 1 m/S 755 mmHg 93%
05:00 +22°C° 0.6 mm 1 m/S 755 mmHg 94%
06:00 +22°C° 0.6 mm 1 m/S 756 mmHg 94%
07:00 +22°C° 0.7 mm 1 m/S 756 mmHg 93%
08:00 +23°C° 0.7 mm 1 m/S 756 mmHg 92%
09:00 +23°C° 0.7 mm 1 m/S 756 mmHg 91%
10:00 +25°C° 0.1 mm 2 m/S 756 mmHg 83%
11:00 +26°C° 0.1 mm 2 m/S 755 mmHg 76%
12:00 +28°C° 0.1 mm 2 m/S 755 mmHg 68%
13:00 +28°C° 0 mm 2 m/S 755 mmHg 65%
14:00 +29°C° 0 mm 2 m/S 755 mmHg 62%
15:00 +30°C° 0 mm 2 m/S 755 mmHg 59%
16:00 +29°C° 0.2 mm 2 m/S 755 mmHg 64%
17:00 +27°C° 0.2 mm 2 m/S 755 mmHg 69%
18:00 +26°C° 0.2 mm 2 m/S 756 mmHg 75%
19:00 +25°C° 0.4 mm 2 m/S 755 mmHg 79%
20:00 +24°C° 0.4 mm 2 m/S 755 mmHg 84%
21:00 +23°C° 0.4 mm 2 m/S 755 mmHg 89%
22:00 +21°C° 0.2 mm 2 m/S 755 mmHg 91%
23:00 +21°C° 0.2 mm 2 m/S 756 mmHg 93%

27 Juni, Sonntag

Zeit Temperatur Niederschläge Wind Luftdruck Luftfeuchtigkeit
00:00 +20°C° 0.2 mm 2 m/S 756 mmHg 94%
01:00 +20°C° 0.1 mm 2 m/S 756 mmHg 95%
02:00 +20°C° 0.1 mm 2 m/S 756 mmHg 95%
03:00 +20°C° 0.1 mm 2 m/S 756 mmHg 96%
04:00 +20°C° 0 mm 2 m/S 756 mmHg 95%
05:00 +21°C° 0 mm 2 m/S 756 mmHg 95%
06:00 +21°C° 0 mm 2 m/S 756 mmHg 94%
07:00 +24°C° 0 mm 2 m/S 756 mmHg 86%
08:00 +25°C° 0 mm 3 m/S 756 mmHg 78%
09:00 +27°C° 0 mm 3 m/S 757 mmHg 70%
10:00 +28°C° 0 mm 3 m/S 757 mmHg 65%
11:00 +29°C° 0 mm 4 m/S 757 mmHg 60%
12:00 +30°C° 0 mm 4 m/S 757 mmHg 56%
13:00 +30°C° 0 mm 4 m/S 756 mmHg 55%
14:00 +30°C° 0 mm 4 m/S 756 mmHg 54%
15:00 +30°C° 0 mm 4 m/S 756 mmHg 53%
16:00 +29°C° 0 mm 3 m/S 756 mmHg 56%
17:00 +29°C° 0 mm 3 m/S 756 mmHg 59%
18:00 +28°C° 0 mm 3 m/S 756 mmHg 62%
19:00 +26°C° 0 mm 3 m/S 757 mmHg 71%
20:00 +24°C° 0 mm 2 m/S 757 mmHg 79%
21:00 +21°C° 0 mm 2 m/S 757 mmHg 88%
22:00 +21°C° 0 mm 2 m/S 757 mmHg 89%
23:00 +21°C° 0 mm 2 m/S 757 mmHg 90%

28 Juni, Montag

Zeit Temperatur Niederschläge Wind Luftdruck Luftfeuchtigkeit
00:00 +20°C° 0 mm 2 m/S 757 mmHg 91%
01:00 +20°C° 0 mm 2 m/S 757 mmHg 92%
02:00 +20°C° 0 mm 2 m/S 757 mmHg 93%
03:00 +20°C° 0 mm 2 m/S 757 mmHg 94%
04:00 +20°C° 0 mm 2 m/S 757 mmHg 93%
05:00 +21°C° 0 mm 2 m/S 757 mmHg 92%
06:00 +21°C° 0 mm 2 m/S 757 mmHg 91%
07:00 +24°C° 0 mm 2 m/S 757 mmHg 83%
08:00 +26°C° 0 mm 3 m/S 757 mmHg 75%
09:00 +27°C° 0 mm 4 m/S 757 mmHg 67%
10:00 +28°C° 0 mm 4 m/S 757 mmHg 65%
11:00 +29°C° 0 mm 4 m/S 757 mmHg 63%
12:00 +30°C° 0 mm 4 m/S 757 mmHg 60%
13:00 +30°C° 0 mm 4 m/S 757 mmHg 60%
14:00 +30°C° 0 mm 3 m/S 757 mmHg 60%
15:00 +30°C° 0 mm 3 m/S 757 mmHg 60%
16:00 +30°C° 0 mm 3 m/S 757 mmHg 62%
17:00 +29°C° 0 mm 3 m/S 757 mmHg 63%
18:00 +29°C° 0 mm 3 m/S 757 mmHg 65%
19:00 +27°C° 0 mm 2 m/S 757 mmHg 73%
20:00 +25°C° 0 mm 2 m/S 757 mmHg 82%
21:00 +23°C° 0 mm 2 m/S 757 mmHg 90%
22:00 +23°C° 0 mm 2 m/S 757 mmHg 91%
23:00 +23°C° 0 mm 2 m/S 757 mmHg 92%
Mehr zeigen

Wir brauchen deine Erlaubnis

Meteoprog und unser Service Anbieter werden persönliche Daten aufbewahren, so wie Cookies, Geräte Bezeichnung oder ähnliche Technologien von deinem Gerät und Prozess, so wie Persönliche Daten Inhalte und Werbungen, genauso wie social Media und den Verkehr zu analysieren.

  • Aufbewahrung und/oder Zugang zu deiner Geräte Informationen.

    Cookies, Geräte Bezeichnung oder andere Informationen, können aufbewahrt oder Zugang zu deinem Gerät erhalten, für den Grund, der oben angegeben wird.

  • Personalisierte Werbung und Inhalte, Messungen, Einblick in das Publikum und Produkt Entwicklung.

    Werbungen und Inhalte können personalisiert werden, basierend auf ein Profil. Mehr Daten können besser personalisierte Werbungen und Inhalte hinzufügen. Werbung und Inhalte können gezeigt und gemessen werden. Einblicke über das Publikum, welche die Werbung gesehen haben und den Inhalt, können abgeleitet werden. So wie Daten können genutzt werden, um es zu verbessern oder die Benutzer Erfahrung zu verbessern das System und die Software.

Wenn du “Ich stimme zu” klickst, erlaubst du uns, die Cookies zu benutzen die Geräte Bezeichnung, den Web oder ähnliche Technologien zu benutzen. Deine Settings, können in deinem Gerät bei deinem Browser geändert werden.

Für den bestimmten Zweck, berechtigten Interessen beruhen darauf, mehr als auf den Inhalt. Du kannst mehr darüber in unseren Privaten und Cookie Politik lesen.